sat.trackr.live / text

‹ back to catalog

MBZ-SAT

NORAD 62626 · 2025-009T

PAYLOAD ACTIVE UNKNOWN

§ Identity

Operator
Country
UAE
Launch date
2025-01-14
Launch site
AFWTR
Launch vehicle
Mass (kg)
RCS (m²)

External: N2YO · Heavens-Above · Gunter

§ Orbital elements

Epoch: 2026-05-25T05:30:56.199168Z

Period
94.86 min
Inclination
97.3971°
Eccentricity
0.0006598
Mean motion
15.17969709 rev/d
Perigee alt
507.4 km
Apogee alt
516.5 km
Semi-major
6,890.1 km
B*
1.1874e-5
RAAN
224.0225°
Arg perigee
76.4801°
Mean anomaly
283.7168°
Rev number
7,520

§ Raw data

MBZ-SAT1 62626U 25009T   26145.22981712  .00000175  00000+0  11874-4 0  99952 62626  97.3971 224.0225 0006598  76.4801 283.7168 15.17969709 75204

JSON: /api/v1/satellites/62626 · /tle

For live sub-satellite position, see the globe view (requires WebGL).

§ Visibility from observer

Set your observer location to see the next 7 days of passes ≥ 10°. The values pass through the URL so the page stays shareable.

No JS? Fill the form by hand. The geolocation button needs JavaScript.

§ Radio — SatNOGS DB

ModeDescriptionDownlinkUplink
FM S-band telemetry 2.228 GHz

1 transmitter · refreshed weekly from db.satnogs.org